Location: *
(40.4000°N, 15.1200°E)
Time: 21:47:58
(UTC+00:00)

BREEZE-M DEB (TANK) - Pass Details

Date: 09 April 2020
Orbit: 321 x 11933 km, 49.7° (Epoch: 24 May)

Event Time Altitude Azimuth Distance (km) Brightness Sun altitude
Rises 18:34:28 0° 297° (WNW) 5,263 10.5 -12.1°
Reaches altitude 10° 18:39:28 10° 304° (NW) 3,020 8.6 -13.0°
Maximum altitude 18:44:58 39° 14° (NNE) 824 4.4 -13.9°
Enters shadow 18:46:35 21° 73° (ENE) 1,035 4.4 -14.2°
